Regional Weather Roundup
Issued by NWS

Home | Current Version | Previous Version | Text Only | Print | Product List | Glossary Off
Versions: 1 2 3 4 5 6 7 8 9 10 11 12 13 14 15 16 17 18 19 20 21 22 23 24 25 26 27 28 29 30 31 32 33 34 35 36 37 38 39 40 41 42 43 44 45 46 47 48 49 50

000
ASUS43 KLOT 280510
RWRIL

ILLINOIS REGIONAL WEATHER ROUNDUP
NATIONAL WEATHER SERVICE CHICAGO/ROMEOVILLE IL
1200 AM CDT THU AUG 28 2014

NOTE: "FAIR" INDICATES FEW OR NO CLOUDS BELOW 12,000 FEET WITH NO
SIGNIFICANT WEATHER AND/OR OBSTRUCTIONS TO VISIBILITY.

* THESE STATIONS ARE NOT UNDER NWS QUALITY CONTROL. THEY ALSO MAY NOT
  REPORT WEATHER SUCH AS PRECIPITATION OR FOG.

ILZ001-002-007-009-015-016-024-280600-
NORTHWEST ILLINOIS

CITY           SKY/WX    TMP DP  RH WIND       PRES   REMARKS
MOLINE         CLEAR     64  61  90 SE3       30.11S
STERLING*      PTCLDY    64  61  88 E5        30.13S
SAVANNA*       PTCLDY    65  62  91 CALM      30.13R
$$

ILZ003-004-008-010-011-017-018-280600-
NORTH CENTRAL ILLINOIS

CITY           SKY/WX    TMP DP  RH WIND       PRES   REMARKS
ROCKFORD       MOCLDY    66  62  87 E7        30.16R
FREEPORT*      PTCLDY    63  61  94 E3        30.16S
ROCHELLE*      PTCLDY    64  61  90 E5        30.14S
DE KALB*       CLEAR     61  59  94 NE5       30.15S
PERU*          CLEAR     67  64  88 E5        30.13S
$$

ILZ005-006-012>014-019>023-280600-
NORTHEAST ILLINOIS

CITY           SKY/WX    TMP DP  RH WIND       PRES   REMARKS
CHICAGO-OHARE  PTCLDY    68  59  73 NE7       30.13S
CHICAGO-MIDWAY PTCLDY    70  62  76 NE7       30.12S
AURORA         CLEAR     64  60  87 NE5       30.13F
LANSING*       CLEAR     65  60  82 CALM      30.13R
JOLIET*        PTCLDY    66  60  80 CALM      30.13S
WAUKEGAN       CLEAR     61  58  90 CALM      30.14R
DUPAGE AIRPORT CLEAR     63  60  90 N5        30.13S
KANKAKEE*      MOCLDY    64  61  90 CALM      30.13R
WHEELING       CLEAR     67  61  81 N3        30.15R
MORRIS*        CLEAR     65  65  99 CALM      30.13R
ROMEOVILLE*    CLEAR     64  62  92 NE8       30.12F
NORTHERLY ISL    N/A     69  59  70 NE13        N/A
$$

LMZ740>746-280600-
SOUTHERN LAKE MICHIGAN

STATION/POSITION SKY/WX   TEMP    WIND        PRES    VSBY  WAVE
                          AIR SEA DIR/SP/G                  HT/PER
                          (F)     (DEG/KT/KT) (MB)    (MI)  (FT/S)
SOUTHERN BUOY              68 69   50/ 10/ 12 1020.6R         1/ 4
WAUKEGAN HARBOR            69      70/  9/ 11   N/A
HARRISON CRIB              69      50/ 12/ 14   N/A
BURNHAM HARBOR             69      50/ 10/ 12   N/A
CALUMET HARBOR             70      40/  8/ 10 1018.9R
MICHIGAN CITY              66      50/  9/ 12   N/A
MICHIGAN CITY 6N           68 73   80/ 10/ 12   N/A           3/ 4
ST. JOSEPH                 69 73   50/ 12/ 16   N/A           2/ 4
$$

ILZ025>027-034>036-040-047-049-050-058-095>099-280600-
WEST-CENTRAL ILLINOIS

CITY           SKY/WX    TMP DP  RH WIND       PRES   REMARKS
QUINCY         CLOUDY    73  71  93 NE5       30.07S
GALESBURG*     MOCLDY    68  65  89 NE5       30.10F
MACOMB*        PTCLDY    70  68  94 NE5       30.10F
JACKSONVILLE*  MOCLDY    75  73  94 CALM      30.08S
PITTSFIELD*    MOCLDY    73  69  87 CALM      30.09S
$$

ILZ028>032-037-038-041>044-048-051>054-059>061-280600-
CENTRAL ILLINOIS

CITY           SKY/WX    TMP DP  RH WIND       PRES   REMARKS
PONTIAC        PTCLDY    66  64  94 NE5       30.11F
DECATUR        PTCLDY    71  68  90 CALM      30.08F
PEORIA         MOCLDY    75  66  73 NE3       30.09F
LACON*         PTCLDY    68  63  83 E8        30.10F
LINCOLN*       MOCLDY    71  69  93 N3        30.06S
SPRINGFIELD    MOCLDY    75  71  87 E6        30.07F
TAYLORVILLE    MOCLDY    70  70 100 CALM      30.07F
$$

ILZ033-039-045-046-055>057-062-063-280600-
EAST-CENTRAL ILLINOIS

CITY           SKY/WX    TMP DP  RH WIND       PRES   REMARKS
CHAMPAIGN      CLEAR     70  66  87 NE10      30.09F
DANVILLE*      CLEAR     65  62  89 NE6       30.07F
RANTOUL*       PTCLDY    69  62  78 NE8       30.10F
MATTOON        PTCLDY    72  70  93 CALM      30.06F
PARIS*         PTCLDY    70  68  95 CALM      30.09S
$$

ILZ079-100>102-280600-
SOUTHWEST ILLINOIS

CITY           SKY/WX    TMP DP  RH WIND       PRES   REMARKS
BELLEVILLE     CLOUDY    72  71  99 N3        30.05F
SPARTA*        CLOUDY    71  70  96 CALM      30.06S
$$

ILZ064>066-069>071-074>076-080>082-084>086-088>090-092>094-280600-
SOUTH-CENTRAL ILLINOIS

CITY           SKY/WX    TMP DP  RH WIND       PRES   REMARKS
CARBONDALE     CLOUDY    73  70  90 CALM      30.04F
CAIRO*         MOCLDY    79  73  83 CALM      30.05S HX  82
EFFINGHAM*     RAIN      71  68  89 CALM      30.06F
MARION         CLOUDY    75  72  88 CALM      30.05F
MT. VERNON     CLOUDY    72  66  83 CALM      30.06R
SALEM*         CLOUDY    73  72  97 CALM      30.06S
METROPOLIS*    MOCLDY    78  76  95 CALM      30.03F FOG     HX  80
$$

ILZ067-068-072-073-078-083-087-091-280600-
SOUTHEAST ILLINOIS

CITY           SKY/WX    TMP DP  RH WIND       PRES   REMARKS
LAWRENCEVILLE  PTCLDY    74  72  93 NW5       30.06S
FLORA*         PTCLDY    74  71  88 CALM      30.06F
FAIRFIELD*     CLOUDY    73  72  94 N3        30.05F
HARRISBURG*    CLOUDY    75  72  88 CALM      30.06S
ROBINSON*      PTCLDY    72  70  95 CALM      30.06F
CARMI*           N/A     75  73  93 CALM      30.05S
$$

ABBREVIATIONS USED IN REMARKS
   TC - TEMPERATURE IN CELSIUS
  WCI - WIND CHILL INDEX
   HX - HEAT INDEX
  VSB - VISIBILITY
$$



USA.gov is the U.S. government's official web portal to all federal, state and local government web resources and services.